METAR Formatted Surface Weather Observation
Issued by NWS

Home | Current Version | Previous Version | Text Only | Print | Product List | Glossary On
Versions: 1 2 3 4 5 6 7 8 9 10 11 12 13 14 15 16 17 18 19 20 21 22 23 24 25 26 27 28 29 30 31 32 33 34 35 36 37 38 39 40 41 42
515
SAUS41 KBOX 291455
MTRMQE
METAR KMQE 291454Z AUTO 05014G26KT 12/08 A3044 RMK AO1 PK WND
04029/1358 SLP321 T01220083 50012



USA.gov is the U.S. government's official web portal to all federal, state and local government web resources and services.